Year,Month,Day,Hour,Minute,Value (Times are PST for temperature in C)
2020,08,13,00,00,15.00
2020,08,13,00,01,15.00
2020,08,13,00,02,15.00
2020,08,13,00,03,15.00
2020,08,13,00,04,14.90
2020,08,13,00,05,14.90
2020,08,13,00,06,14.90
2020,08,13,00,07,14.90
2020,08,13,00,08,14.80
2020,08,13,00,09,14.80
2020,08,13,00,10,14.80
2020,08,13,00,11,14.70
2020,08,13,00,12,14.70
2020,08,13,00,13,14.70
2020,08,13,00,14,14.60
2020,08,13,00,15,14.60
2020,08,13,00,16,14.60
2020,08,13,00,17,14.50
2020,08,13,00,18,14.50
2020,08,13,00,19,14.50
2020,08,13,00,20,14.40
2020,08,13,00,21,14.40
2020,08,13,00,22,14.40
2020,08,13,00,23,14.30
2020,08,13,00,24,14.30
2020,08,13,00,25,14.30
2020,08,13,00,26,14.30
2020,08,13,00,27,14.20
2020,08,13,00,28,14.20
2020,08,13,00,29,14.20
2020,08,13,00,30,14.20
2020,08,13,00,31,14.10
2020,08,13,00,32,14.10
2020,08,13,00,33,14.10
2020,08,13,00,34,14.10
2020,08,13,00,35,14.00
2020,08,13,00,36,14.00
2020,08,13,00,37,13.90
2020,08,13,00,38,13.90
2020,08,13,00,39,13.90
2020,08,13,00,40,13.80
2020,08,13,00,41,13.80
2020,08,13,00,42,13.80
2020,08,13,00,43,13.80
2020,08,13,00,44,13.80
2020,08,13,00,45,13.70
2020,08,13,00,46,13.70
2020,08,13,00,47,13.70
2020,08,13,00,48,13.70
2020,08,13,00,49,13.60
2020,08,13,00,50,13.60
2020,08,13,00,51,13.50
2020,08,13,00,52,13.50
2020,08,13,00,53,13.50
2020,08,13,00,54,13.40
2020,08,13,00,55,13.40
2020,08,13,00,56,13.40
2020,08,13,00,57,13.40
2020,08,13,00,58,13.30
2020,08,13,00,59,13.30
2020,08,13,01,00,13.30
2020,08,13,01,01,13.30
2020,08,13,01,02,13.30
2020,08,13,01,03,13.20
2020,08,13,01,04,13.20
2020,08,13,01,05,13.20
2020,08,13,01,06,13.20
2020,08,13,01,07,13.10
2020,08,13,01,08,13.10
2020,08,13,01,09,13.10
2020,08,13,01,10,13.10
2020,08,13,01,11,13.00
2020,08,13,01,12,13.00
2020,08,13,01,13,13.00
2020,08,13,01,14,13.00
2020,08,13,01,15,12.90
2020,08,13,01,16,12.90
2020,08,13,01,17,13.00
2020,08,13,01,18,13.00
2020,08,13,01,19,13.00
2020,08,13,01,20,13.00
2020,08,13,01,21,13.10
2020,08,13,01,22,13.10
2020,08,13,01,23,13.10
2020,08,13,01,24,13.10
2020,08,13,01,25,13.20
2020,08,13,01,26,13.20
2020,08,13,01,27,13.20
2020,08,13,01,28,13.20
2020,08,13,01,29,13.30
2020,08,13,01,30,13.30
2020,08,13,01,31,13.40
2020,08,13,01,32,13.50
2020,08,13,01,33,13.60
2020,08,13,01,34,13.70
2020,08,13,01,35,13.80
2020,08,13,01,36,13.80
2020,08,13,01,37,13.90
2020,08,13,01,38,13.90
2020,08,13,01,39,14.00
2020,08,13,01,40,14.00
2020,08,13,01,41,14.00
2020,08,13,01,42,14.00
2020,08,13,01,43,14.10
2020,08,13,01,44,14.10
2020,08,13,01,45,14.10
2020,08,13,01,46,14.10
2020,08,13,01,47,14.10
2020,08,13,01,48,14.10
2020,08,13,01,49,14.10
2020,08,13,01,50,14.10
2020,08,13,01,51,14.10
2020,08,13,01,52,14.10
2020,08,13,01,53,14.10
2020,08,13,01,54,14.10
2020,08,13,01,55,14.10
2020,08,13,01,56,14.10
2020,08,13,01,57,14.10
2020,08,13,01,58,14.10
2020,08,13,01,59,14.10
2020,08,13,02,00,14.10
2020,08,13,02,01,14.10
2020,08,13,02,02,14.10
2020,08,13,02,03,14.10
2020,08,13,02,04,14.00
2020,08,13,02,05,14.00
2020,08,13,02,06,14.00
2020,08,13,02,07,14.00
2020,08,13,02,08,14.00
2020,08,13,02,09,14.00
2020,08,13,02,10,14.00
2020,08,13,02,11,14.00
2020,08,13,02,12,14.00
2020,08,13,02,13,14.00
2020,08,13,02,14,14.00
2020,08,13,02,15,14.00
2020,08,13,02,16,14.00
2020,08,13,02,17,14.00
2020,08,13,02,18,14.00
2020,08,13,02,19,14.00
2020,08,13,02,20,14.00
2020,08,13,02,21,14.00
2020,08,13,02,22,14.00
2020,08,13,02,23,14.00
2020,08,13,02,24,14.00
2020,08,13,02,25,14.00
2020,08,13,02,26,14.00
2020,08,13,02,27,14.10
2020,08,13,02,28,14.10
2020,08,13,02,29,14.10
2020,08,13,02,30,14.10
2020,08,13,02,31,14.10
2020,08,13,02,32,14.10
2020,08,13,02,33,14.10
2020,08,13,02,34,14.10
2020,08,13,02,35,14.00
2020,08,13,02,36,14.00
2020,08,13,02,37,14.00
2020,08,13,02,38,14.00
2020,08,13,02,39,14.00
2020,08,13,02,40,14.00
2020,08,13,02,41,14.00
2020,08,13,02,42,14.00
2020,08,13,02,43,14.00
2020,08,13,02,44,14.00
2020,08,13,02,45,14.00
2020,08,13,02,46,14.00
2020,08,13,02,47,14.00
2020,08,13,02,48,14.00
2020,08,13,02,49,14.00
2020,08,13,02,50,14.00
2020,08,13,02,51,14.00
2020,08,13,02,52,14.00
2020,08,13,02,53,14.00
2020,08,13,02,54,14.00
2020,08,13,02,55,14.00
2020,08,13,02,56,14.00
2020,08,13,02,57,14.00
2020,08,13,02,58,14.00
2020,08,13,02,59,14.00
2020,08,13,03,00,14.00
2020,08,13,03,01,14.10
2020,08,13,03,02,14.10
2020,08,13,03,03,14.10
2020,08,13,03,04,14.10
2020,08,13,03,05,14.10
2020,08,13,03,06,14.10
2020,08,13,03,07,14.00
2020,08,13,03,08,14.00
2020,08,13,03,09,13.90
2020,08,13,03,10,13.90
2020,08,13,03,11,13.90
2020,08,13,03,12,13.90
2020,08,13,03,13,13.80
2020,08,13,03,14,13.80
2020,08,13,03,15,13.80
2020,08,13,03,16,13.80
2020,08,13,03,17,13.80
2020,08,13,03,18,13.80
2020,08,13,03,19,13.70
2020,08,13,03,20,13.70
2020,08,13,03,21,13.70
2020,08,13,03,22,13.70
2020,08,13,03,23,13.70
2020,08,13,03,24,13.70
2020,08,13,03,25,13.70
2020,08,13,03,26,13.70
2020,08,13,03,27,13.70
2020,08,13,03,28,13.60
2020,08,13,03,29,13.60
2020,08,13,03,30,13.60
2020,08,13,03,31,13.50
2020,08,13,03,32,13.50
2020,08,13,03,33,13.40
2020,08,13,03,34,13.40
2020,08,13,03,35,13.40
2020,08,13,03,36,13.40
2020,08,13,03,37,13.30
2020,08,13,03,38,13.30
2020,08,13,03,39,13.30
2020,08,13,03,40,13.20
2020,08,13,03,41,13.20
2020,08,13,03,42,13.20
2020,08,13,03,43,13.20
2020,08,13,03,44,13.10
2020,08,13,03,45,13.10
2020,08,13,03,46,13.10
2020,08,13,03,47,13.00
2020,08,13,03,48,13.00
2020,08,13,03,49,12.90
2020,08,13,03,50,12.90
2020,08,13,03,51,12.90
2020,08,13,03,52,12.80
2020,08,13,03,53,12.80
2020,08,13,03,54,12.80
2020,08,13,03,55,12.70
2020,08,13,03,56,12.70
2020,08,13,03,57,12.60
2020,08,13,03,58,12.60
2020,08,13,03,59,12.60
2020,08,13,04,00,12.50
2020,08,13,04,01,12.50
2020,08,13,04,02,12.50
2020,08,13,04,03,12.40
2020,08,13,04,04,12.40
2020,08,13,04,05,12.40
2020,08,13,04,06,12.40
2020,08,13,04,07,12.30
2020,08,13,04,08,12.30
2020,08,13,04,09,12.30
2020,08,13,04,10,12.30
2020,08,13,04,11,12.30
2020,08,13,04,12,12.20
2020,08,13,04,13,12.20
2020,08,13,04,14,12.20
2020,08,13,04,15,12.20
2020,08,13,04,16,12.10
2020,08,13,04,17,12.10
2020,08,13,04,18,12.00
2020,08,13,04,19,12.00
2020,08,13,04,20,12.00
2020,08,13,04,21,11.90
2020,08,13,04,22,11.90
2020,08,13,04,23,11.90
2020,08,13,04,24,11.80
2020,08,13,04,25,11.80
2020,08,13,04,26,11.80
2020,08,13,04,27,11.80
2020,08,13,04,28,11.70
2020,08,13,04,29,11.70
2020,08,13,04,30,11.70
2020,08,13,04,31,11.70
2020,08,13,04,32,11.60
2020,08,13,04,33,11.60
2020,08,13,04,34,11.60
2020,08,13,04,35,11.60
2020,08,13,04,36,11.50
2020,08,13,04,37,11.50
2020,08,13,04,38,11.50
2020,08,13,04,39,11.40
2020,08,13,04,40,11.40
2020,08,13,04,41,11.40
2020,08,13,04,42,11.40
2020,08,13,04,43,11.40
2020,08,13,04,44,11.30
2020,08,13,04,45,11.30
2020,08,13,04,46,11.30
2020,08,13,04,47,11.30
2020,08,13,04,48,11.20
2020,08,13,04,49,11.20
2020,08,13,04,50,11.20
2020,08,13,04,51,11.20
2020,08,13,04,52,11.20
2020,08,13,04,53,11.20
2020,08,13,04,54,11.20
2020,08,13,04,55,11.10
2020,08,13,04,56,11.10
2020,08,13,04,57,11.10
2020,08,13,04,58,11.20
2020,08,13,04,59,11.20
2020,08,13,05,00,11.20
2020,08,13,05,01,11.20
2020,08,13,05,02,11.20
2020,08,13,05,03,11.20
2020,08,13,05,04,11.20
2020,08,13,05,05,11.20
2020,08,13,05,06,11.20
2020,08,13,05,07,11.10
2020,08,13,05,08,11.10
2020,08,13,05,09,11.10
2020,08,13,05,10,11.10
2020,08,13,05,11,11.10
2020,08,13,05,12,11.10
2020,08,13,05,13,11.10
2020,08,13,05,14,11.10
2020,08,13,05,15,11.00
2020,08,13,05,16,11.00
2020,08,13,05,17,11.00
2020,08,13,05,18,10.90
2020,08,13,05,19,10.90
2020,08,13,05,20,10.90
2020,08,13,05,21,10.90
2020,08,13,05,22,10.90
2020,08,13,05,23,10.90
2020,08,13,05,24,10.80
2020,08,13,05,25,10.80
2020,08,13,05,26,10.80
2020,08,13,05,27,10.80
2020,08,13,05,28,10.70
2020,08,13,05,29,10.70
2020,08,13,05,30,10.70
2020,08,13,05,31,10.70
2020,08,13,05,32,10.70
2020,08,13,05,33,10.70
2020,08,13,05,34,10.70
2020,08,13,05,35,10.60
2020,08,13,05,36,10.60
2020,08,13,05,37,10.60
2020,08,13,05,38,10.60
2020,08,13,05,39,10.60
2020,08,13,05,40,10.50
2020,08,13,05,41,10.50
2020,08,13,05,42,10.50
2020,08,13,05,43,10.50
2020,08,13,05,44,10.40
2020,08,13,05,45,10.40
2020,08,13,05,46,10.40
2020,08,13,05,47,10.40
2020,08,13,05,48,10.40
2020,08,13,05,49,10.40
2020,08,13,05,50,10.40
2020,08,13,05,51,10.40
2020,08,13,05,52,10.40
2020,08,13,05,53,10.40
2020,08,13,05,54,10.40
2020,08,13,05,55,10.40
2020,08,13,05,56,10.40
2020,08,13,05,57,10.40
2020,08,13,05,58,10.40
2020,08,13,05,59,10.40
2020,08,13,06,00,10.30
2020,08,13,06,01,10.30
2020,08,13,06,02,10.30
2020,08,13,06,03,10.30
2020,08,13,06,04,10.30
2020,08,13,06,05,10.30
2020,08,13,06,06,10.30
2020,08,13,06,07,10.30
2020,08,13,06,08,10.30
2020,08,13,06,09,10.30
2020,08,13,06,10,10.30
2020,08,13,06,11,10.30
2020,08,13,06,12,10.30
2020,08,13,06,13,10.30
2020,08,13,06,14,10.30
2020,08,13,06,15,10.30
2020,08,13,06,16,10.30
2020,08,13,06,17,10.30
2020,08,13,06,18,10.30
2020,08,13,06,19,10.30
2020,08,13,06,20,10.30
2020,08,13,06,21,10.30
2020,08,13,06,22,10.30
2020,08,13,06,23,10.30
2020,08,13,06,24,10.40
2020,08,13,06,25,10.40
2020,08,13,06,26,10.40
2020,08,13,06,27,10.40
2020,08,13,06,28,10.40
2020,08,13,06,29,10.50
2020,08,13,06,30,10.50
2020,08,13,06,31,10.50
2020,08,13,06,32,10.60
2020,08,13,06,33,10.60
2020,08,13,06,34,10.60
2020,08,13,06,35,10.60
2020,08,13,06,36,10.60
2020,08,13,06,37,10.60
2020,08,13,06,38,10.60
2020,08,13,06,39,10.60
2020,08,13,06,40,10.60
2020,08,13,06,41,10.60
2020,08,13,06,42,10.60
2020,08,13,06,43,10.60
2020,08,13,06,44,10.60
2020,08,13,06,45,10.60
2020,08,13,06,46,10.60
2020,08,13,06,47,10.60
2020,08,13,06,48,10.60
2020,08,13,06,49,10.60
2020,08,13,06,50,10.60
2020,08,13,06,51,10.60
2020,08,13,06,52,10.60
2020,08,13,06,53,10.70
2020,08,13,06,54,10.70
2020,08,13,06,55,10.70
2020,08,13,06,56,10.70
2020,08,13,06,57,10.70
2020,08,13,06,58,10.70
2020,08,13,06,59,10.80
2020,08,13,07,00,10.80
2020,08,13,07,01,10.80
2020,08,13,07,02,10.80
2020,08,13,07,03,10.80
2020,08,13,07,04,10.80
2020,08,13,07,05,10.80
2020,08,13,07,06,10.90
2020,08,13,07,07,10.90
2020,08,13,07,08,10.90
2020,08,13,07,09,10.90
2020,08,13,07,10,11.00
2020,08,13,07,11,11.00
2020,08,13,07,12,11.10
2020,08,13,07,13,11.20
2020,08,13,07,14,11.20
2020,08,13,07,15,11.30
2020,08,13,07,16,11.30
2020,08,13,07,17,11.30
2020,08,13,07,18,11.40
2020,08,13,07,19,11.50
2020,08,13,07,20,11.50
2020,08,13,07,21,11.60
2020,08,13,07,22,11.60
2020,08,13,07,23,11.70
2020,08,13,07,24,11.80
2020,08,13,07,25,11.80
2020,08,13,07,26,11.80
2020,08,13,07,27,11.90
2020,08,13,07,28,11.90
2020,08,13,07,29,12.00
2020,08,13,07,30,12.10
2020,08,13,07,31,12.10
2020,08,13,07,32,12.20
2020,08,13,07,33,12.20
2020,08,13,07,34,12.30
2020,08,13,07,35,12.40
2020,08,13,07,36,12.50
2020,08,13,07,37,12.50
2020,08,13,07,38,12.60
2020,08,13,07,39,12.70
2020,08,13,07,40,12.80
2020,08,13,07,41,12.90
2020,08,13,07,42,13.00
2020,08,13,07,43,13.10
2020,08,13,07,44,13.10
2020,08,13,07,45,13.20
2020,08,13,07,46,13.30
2020,08,13,07,47,13.50
2020,08,13,07,48,13.60
2020,08,13,07,49,13.70
2020,08,13,07,50,13.80
2020,08,13,07,51,13.90
2020,08,13,07,52,14.00
2020,08,13,07,53,14.10
2020,08,13,07,54,14.20
2020,08,13,07,55,14.30
2020,08,13,07,56,14.40
2020,08,13,07,57,14.40
2020,08,13,07,58,14.40
2020,08,13,07,59,14.50
2020,08,13,08,00,14.50
2020,08,13,08,01,14.60
2020,08,13,08,02,14.70
2020,08,13,08,03,14.70
2020,08,13,08,04,14.80
2020,08,13,08,05,14.80
2020,08,13,08,06,14.80
2020,08,13,08,07,14.80
2020,08,13,08,08,14.80
2020,08,13,08,09,14.80
2020,08,13,08,10,14.80
2020,08,13,08,11,14.80
2020,08,13,08,12,14.80
2020,08,13,08,13,14.80
2020,08,13,08,14,14.80
2020,08,13,08,15,14.80
2020,08,13,08,16,14.80
2020,08,13,08,17,14.80
2020,08,13,08,18,14.80
2020,08,13,08,19,14.80
2020,08,13,08,20,14.90
2020,08,13,08,21,14.90
2020,08,13,08,22,14.90
2020,08,13,08,23,14.90
2020,08,13,08,24,14.80
2020,08,13,08,25,14.80
2020,08,13,08,26,14.80
2020,08,13,08,27,14.80
2020,08,13,08,28,14.80
2020,08,13,08,29,14.80
2020,08,13,08,30,14.80
2020,08,13,08,31,14.80
2020,08,13,08,32,14.80
2020,08,13,08,33,14.70
2020,08,13,08,34,14.70
2020,08,13,08,35,14.70
2020,08,13,08,36,14.70
2020,08,13,08,37,14.70
2020,08,13,08,38,14.70
2020,08,13,08,39,14.70
2020,08,13,08,40,14.70
2020,08,13,08,41,14.70
2020,08,13,08,42,14.70
2020,08,13,08,43,14.70
2020,08,13,08,44,14.70
2020,08,13,08,45,14.70
2020,08,13,08,46,14.70
2020,08,13,08,47,14.80
2020,08,13,08,48,14.80
2020,08,13,08,49,14.80
2020,08,13,08,50,14.80
2020,08,13,08,51,14.80
2020,08,13,08,52,14.90
2020,08,13,08,53,14.90
2020,08,13,08,54,14.80
2020,08,13,08,55,14.90
2020,08,13,08,56,14.90
2020,08,13,08,57,14.90
2020,08,13,08,58,14.90
2020,08,13,08,59,14.90
2020,08,13,09,00,14.90
2020,08,13,09,01,14.90
2020,08,13,09,02,14.90
2020,08,13,09,03,14.90
2020,08,13,09,04,14.90
2020,08,13,09,05,15.00
2020,08,13,09,06,14.90
2020,08,13,09,07,14.90
2020,08,13,09,08,15.00
2020,08,13,09,09,15.00
2020,08,13,09,10,15.00
2020,08,13,09,11,15.00
2020,08,13,09,12,15.00
2020,08,13,09,13,15.00
2020,08,13,09,14,15.00
2020,08,13,09,15,15.10
2020,08,13,09,16,15.10
2020,08,13,09,17,15.10
2020,08,13,09,18,15.10
2020,08,13,09,19,15.10
2020,08,13,09,20,15.10
2020,08,13,09,21,15.10
2020,08,13,09,22,15.10
2020,08,13,09,23,15.20
2020,08,13,09,24,15.20
2020,08,13,09,25,15.20
2020,08,13,09,26,15.20
2020,08,13,09,27,15.20
2020,08,13,09,28,15.20
2020,08,13,09,29,15.20
2020,08,13,09,30,15.30
2020,08,13,09,31,15.30
2020,08,13,09,32,15.30
2020,08,13,09,33,15.30
2020,08,13,09,34,15.30
2020,08,13,09,35,15.30
2020,08,13,09,36,15.30
2020,08,13,09,37,15.30
2020,08,13,09,38,15.30
2020,08,13,09,39,15.30
2020,08,13,09,40,15.30
2020,08,13,09,41,15.30
2020,08,13,09,42,15.30
2020,08,13,09,43,15.30
2020,08,13,09,44,15.30
2020,08,13,09,45,15.30
2020,08,13,09,46,15.30
2020,08,13,09,47,15.30
2020,08,13,09,48,15.30
2020,08,13,09,49,15.30
2020,08,13,09,50,15.30
2020,08,13,09,51,15.30
2020,08,13,09,52,15.30
2020,08,13,09,53,15.30
2020,08,13,09,54,15.30
2020,08,13,09,55,15.30
2020,08,13,09,56,15.30
2020,08,13,09,57,15.30
2020,08,13,09,58,15.30
2020,08,13,09,59,15.40
2020,08,13,10,00,15.40
2020,08,13,10,01,15.40
2020,08,13,10,02,15.50
2020,08,13,10,03,15.50
2020,08,13,10,04,15.50
2020,08,13,10,05,15.60
2020,08,13,10,06,15.60
2020,08,13,10,07,15.70
2020,08,13,10,08,15.80
2020,08,13,10,09,15.90
2020,08,13,10,10,16.00
2020,08,13,10,11,16.10
2020,08,13,10,12,16.20
2020,08,13,10,13,16.20
2020,08,13,10,14,16.30
2020,08,13,10,15,16.40
2020,08,13,10,16,16.50
2020,08,13,10,17,16.60
2020,08,13,10,18,16.70
2020,08,13,10,19,16.80
2020,08,13,10,20,16.90
2020,08,13,10,21,17.00
2020,08,13,10,22,17.10
2020,08,13,10,23,17.20
2020,08,13,10,24,17.30
2020,08,13,10,25,17.40
2020,08,13,10,26,17.50
2020,08,13,10,27,17.50
2020,08,13,10,28,17.60
2020,08,13,10,29,17.60
2020,08,13,10,30,17.70
2020,08,13,10,31,17.70
2020,08,13,10,32,17.70
2020,08,13,10,33,17.70
2020,08,13,10,34,17.70
2020,08,13,10,35,17.80
2020,08,13,10,36,17.80
2020,08,13,10,37,17.70
2020,08,13,10,38,17.60
2020,08,13,10,39,17.60
2020,08,13,10,40,17.60
2020,08,13,10,41,17.50
2020,08,13,10,42,17.50
2020,08,13,10,43,17.50
2020,08,13,10,44,17.50
2020,08,13,10,45,17.60
2020,08,13,10,46,17.60
2020,08,13,10,47,17.70
2020,08,13,10,48,17.70
2020,08,13,10,49,17.70
2020,08,13,10,50,17.80
2020,08,13,10,51,17.80
2020,08,13,10,52,17.90
2020,08,13,10,53,17.90
2020,08,13,10,54,17.90
2020,08,13,10,55,17.90
2020,08,13,10,56,17.90
2020,08,13,10,57,17.80
2020,08,13,10,58,17.80
2020,08,13,10,59,17.90
2020,08,13,11,00,17.90
2020,08,13,11,01,17.80
2020,08,13,11,02,17.80
2020,08,13,11,03,17.80
2020,08,13,11,04,17.90
2020,08,13,11,05,17.90
2020,08,13,11,06,17.90
2020,08,13,11,07,17.90
2020,08,13,11,08,17.90
2020,08,13,11,09,17.90
2020,08,13,11,10,17.90
2020,08,13,11,11,17.80
2020,08,13,11,12,17.70
2020,08,13,11,13,17.70
2020,08,13,11,14,17.70
2020,08,13,11,15,17.70
2020,08,13,11,16,17.70
2020,08,13,11,17,17.70
2020,08,13,11,18,17.70
2020,08,13,11,19,17.70
2020,08,13,11,20,17.80
2020,08,13,11,21,17.80
2020,08,13,11,22,17.90
2020,08,13,11,23,18.00
2020,08,13,11,24,18.00
2020,08,13,11,25,18.00
2020,08,13,11,26,18.00
2020,08,13,11,27,18.00
2020,08,13,11,28,18.00
2020,08,13,11,29,17.90
2020,08,13,11,30,17.90
2020,08,13,11,31,18.00
2020,08,13,11,32,18.00
2020,08,13,11,33,18.10
2020,08,13,11,34,18.10
2020,08,13,11,35,18.20
2020,08,13,11,36,18.20
2020,08,13,11,37,18.20
2020,08,13,11,38,18.20
2020,08,13,11,39,18.30
2020,08,13,11,40,18.30
2020,08,13,11,41,18.30
2020,08,13,11,42,18.30
2020,08,13,11,43,18.30
2020,08,13,11,44,18.30
2020,08,13,11,45,18.30
2020,08,13,11,46,18.30
2020,08,13,11,47,18.30
2020,08,13,11,48,18.30
2020,08,13,11,49,18.30
2020,08,13,11,50,18.40
2020,08,13,11,51,18.40
2020,08,13,11,52,18.40
2020,08,13,11,53,18.50
2020,08,13,11,54,18.60
2020,08,13,11,55,18.70
2020,08,13,11,56,18.70
2020,08,13,11,57,18.80
2020,08,13,11,58,18.80
2020,08,13,11,59,18.80
2020,08,13,12,00,18.70
2020,08,13,12,01,18.70
2020,08,13,12,02,18.70
2020,08,13,12,03,18.70
2020,08,13,12,04,18.80
2020,08,13,12,05,18.80
2020,08,13,12,06,18.80
2020,08,13,12,07,18.80
2020,08,13,12,08,18.80
2020,08,13,12,09,18.80
2020,08,13,12,10,18.80
2020,08,13,12,11,18.80
2020,08,13,12,12,18.80
2020,08,13,12,13,18.80
2020,08,13,12,14,18.80
2020,08,13,12,15,18.80
2020,08,13,12,16,18.80
2020,08,13,12,17,18.80
2020,08,13,12,18,18.90
2020,08,13,12,19,18.90
2020,08,13,12,20,19.00
2020,08,13,12,21,19.00
2020,08,13,12,22,18.90
2020,08,13,12,23,19.00
2020,08,13,12,24,19.00
2020,08,13,12,25,19.00
2020,08,13,12,26,19.10
2020,08,13,12,27,19.10
2020,08,13,12,28,19.10
2020,08,13,12,29,19.20
2020,08,13,12,30,19.20
2020,08,13,12,31,19.30
2020,08,13,12,32,19.40
2020,08,13,12,33,19.40
2020,08,13,12,34,19.50
2020,08,13,12,35,19.50
2020,08,13,12,36,19.50
2020,08,13,12,37,19.50
2020,08,13,12,38,19.50
2020,08,13,12,39,19.50
2020,08,13,12,40,19.50
2020,08,13,12,41,19.50
2020,08,13,12,42,19.50
2020,08,13,12,43,19.40
2020,08,13,12,44,19.40
2020,08,13,12,45,19.30
2020,08,13,12,46,19.30
2020,08,13,12,47,19.30
2020,08,13,12,48,19.30
2020,08,13,12,49,19.30
2020,08,13,12,50,19.20
2020,08,13,12,51,19.20
2020,08,13,12,52,19.20
2020,08,13,12,53,19.20
2020,08,13,12,54,19.20
2020,08,13,12,55,19.20
2020,08,13,12,56,19.20
2020,08,13,12,57,19.20
2020,08,13,12,58,19.20
2020,08,13,12,59,19.20
2020,08,13,13,00,19.10
2020,08,13,13,01,19.10
2020,08,13,13,02,19.20
2020,08,13,13,03,19.20
2020,08,13,13,04,19.30
2020,08,13,13,05,19.30
2020,08,13,13,06,19.30
2020,08,13,13,07,19.30
2020,08,13,13,08,19.30
2020,08,13,13,09,19.20
2020,08,13,13,10,19.20
2020,08,13,13,11,19.10
2020,08,13,13,12,19.00
2020,08,13,13,13,19.00
2020,08,13,13,14,18.90
2020,08,13,13,15,18.90
2020,08,13,13,16,18.80
2020,08,13,13,17,18.70
2020,08,13,13,18,18.70
2020,08,13,13,19,18.80
2020,08,13,13,20,18.80
2020,08,13,13,21,18.80
2020,08,13,13,22,18.80
2020,08,13,13,23,18.90
2020,08,13,13,24,18.90
2020,08,13,13,25,18.90
2020,08,13,13,26,18.90
2020,08,13,13,27,19.00
2020,08,13,13,28,19.10
2020,08,13,13,29,19.10
2020,08,13,13,30,19.20
2020,08,13,13,31,19.20
2020,08,13,13,32,19.20
2020,08,13,13,33,19.20
2020,08,13,13,34,19.20
2020,08,13,13,35,19.20
2020,08,13,13,36,19.20
2020,08,13,13,37,19.20
2020,08,13,13,38,19.30
2020,08,13,13,39,19.30
2020,08,13,13,40,19.40
2020,08,13,13,41,19.40
2020,08,13,13,42,19.40
2020,08,13,13,43,19.30
2020,08,13,13,44,19.30
2020,08,13,13,45,19.20
2020,08,13,13,46,19.20
2020,08,13,13,47,19.30
2020,08,13,13,48,19.30
2020,08,13,13,49,19.30
2020,08,13,13,50,19.30
2020,08,13,13,51,19.30
2020,08,13,13,52,19.40
2020,08,13,13,53,19.40
2020,08,13,13,54,19.50
2020,08,13,13,55,19.60
2020,08,13,13,56,19.70
2020,08,13,13,57,19.70
2020,08,13,13,58,19.80
2020,08,13,13,59,19.90
2020,08,13,14,00,19.90
2020,08,13,14,01,19.90
2020,08,13,14,02,19.90
2020,08,13,14,03,19.90
2020,08,13,14,04,19.80
2020,08,13,14,05,19.80
2020,08,13,14,06,19.80
2020,08,13,14,07,19.80
2020,08,13,14,08,19.80
2020,08,13,14,09,19.90
2020,08,13,14,10,19.90
2020,08,13,14,11,19.90
2020,08,13,14,12,19.90
2020,08,13,14,13,19.90
2020,08,13,14,14,20.00
2020,08,13,14,15,20.00
2020,08,13,14,16,20.10
2020,08,13,14,17,20.10
2020,08,13,14,18,20.10
2020,08,13,14,19,20.10
2020,08,13,14,20,20.10
2020,08,13,14,21,20.20
2020,08,13,14,22,20.20
2020,08,13,14,23,20.20
2020,08,13,14,24,20.30
2020,08,13,14,25,20.40
2020,08,13,14,26,20.50
2020,08,13,14,27,20.50
2020,08,13,14,28,20.50
2020,08,13,14,29,20.50
2020,08,13,14,30,20.60
2020,08,13,14,31,20.60
2020,08,13,14,32,20.70
2020,08,13,14,33,20.80
2020,08,13,14,34,20.80
2020,08,13,14,35,20.80
2020,08,13,14,36,20.80
2020,08,13,14,37,20.80
2020,08,13,14,38,20.80
2020,08,13,14,39,20.90
2020,08,13,14,40,20.90
2020,08,13,14,41,20.90
2020,08,13,14,42,20.90
2020,08,13,14,43,20.90
2020,08,13,14,44,20.90
2020,08,13,14,45,21.00
2020,08,13,14,46,21.10
2020,08,13,14,47,21.10
2020,08,13,14,48,21.20
2020,08,13,14,49,21.20
2020,08,13,14,50,21.30
2020,08,13,14,51,21.30
2020,08,13,14,52,21.20
2020,08,13,14,53,21.20
2020,08,13,14,54,21.20
2020,08,13,14,55,21.30
2020,08,13,14,56,21.30
2020,08,13,14,57,21.30
2020,08,13,14,58,21.40
2020,08,13,14,59,21.50
2020,08,13,15,00,21.50
2020,08,13,15,01,21.40
2020,08,13,15,02,21.30
2020,08,13,15,03,21.30
2020,08,13,15,04,21.30
2020,08,13,15,05,21.20
2020,08,13,15,06,21.20
2020,08,13,15,07,21.20
2020,08,13,15,08,21.10
2020,08,13,15,09,21.10
2020,08,13,15,10,21.00
2020,08,13,15,11,20.90
2020,08,13,15,12,20.90
2020,08,13,15,13,20.90
2020,08,13,15,14,20.80
2020,08,13,15,15,20.80
2020,08,13,15,16,20.80
2020,08,13,15,17,20.80
2020,08,13,15,18,20.80
2020,08,13,15,19,20.80
2020,08,13,15,20,20.80
2020,08,13,15,21,20.90
2020,08,13,15,22,20.90
2020,08,13,15,23,20.80
2020,08,13,15,24,20.80
2020,08,13,15,25,20.80
2020,08,13,15,26,20.80
2020,08,13,15,27,20.80
2020,08,13,15,28,20.80
2020,08,13,15,29,20.80
2020,08,13,15,30,20.80
2020,08,13,15,31,20.80
2020,08,13,15,32,20.80
2020,08,13,15,33,20.80
2020,08,13,15,34,20.80
2020,08,13,15,35,20.80
2020,08,13,15,36,20.80
2020,08,13,15,37,20.80
2020,08,13,15,38,20.80
2020,08,13,15,39,20.80
2020,08,13,15,40,20.90
2020,08,13,15,41,20.90
2020,08,13,15,42,20.90
2020,08,13,15,43,20.90
2020,08,13,15,44,20.90
2020,08,13,15,45,20.90
2020,08,13,15,46,20.90
2020,08,13,15,47,20.90
2020,08,13,15,48,21.00
2020,08,13,15,49,21.00
2020,08,13,15,50,21.10
2020,08,13,15,51,21.10
2020,08,13,15,52,21.10
2020,08,13,15,53,21.10
2020,08,13,15,54,21.10
2020,08,13,15,55,21.10
2020,08,13,15,56,21.10
2020,08,13,15,57,21.20
2020,08,13,15,58,21.20
2020,08,13,15,59,21.30
2020,08,13,16,00,21.30
2020,08,13,16,01,21.40
2020,08,13,16,02,21.40
2020,08,13,16,03,21.40
2020,08,13,16,04,21.40
2020,08,13,16,05,21.30
2020,08,13,16,06,21.30
2020,08,13,16,07,21.30
2020,08,13,16,08,21.40
2020,08,13,16,09,21.40
2020,08,13,16,10,21.40
2020,08,13,16,11,21.40
2020,08,13,16,12,21.50
2020,08,13,16,13,21.60
2020,08,13,16,14,21.60
2020,08,13,16,15,21.70
2020,08,13,16,16,21.70
2020,08,13,16,17,21.70
2020,08,13,16,18,21.60
2020,08,13,16,19,21.60
2020,08,13,16,20,21.50
2020,08,13,16,21,21.40
2020,08,13,16,22,21.40
2020,08,13,16,23,21.30
2020,08,13,16,24,21.40
2020,08,13,16,25,21.40
2020,08,13,16,26,21.40
2020,08,13,16,27,21.40
2020,08,13,16,28,21.40
2020,08,13,16,29,21.40
2020,08,13,16,30,21.50
2020,08,13,16,31,21.60
2020,08,13,16,32,21.60
2020,08,13,16,33,21.60
2020,08,13,16,34,21.50
2020,08,13,16,35,21.50
2020,08,13,16,36,21.50
2020,08,13,16,37,21.50
2020,08,13,16,38,21.50
2020,08,13,16,39,21.40
2020,08,13,16,40,21.40
2020,08,13,16,41,21.40
2020,08,13,16,42,21.30
2020,08,13,16,43,21.30
2020,08,13,16,44,21.30
2020,08,13,16,45,21.20
2020,08,13,16,46,21.20
2020,08,13,16,47,21.20
2020,08,13,16,48,21.10
2020,08,13,16,49,21.10
2020,08,13,16,50,21.10
2020,08,13,16,51,21.20
2020,08,13,16,52,21.20
2020,08,13,16,53,21.20
2020,08,13,16,54,21.30
2020,08,13,16,55,21.30
2020,08,13,16,56,21.40
2020,08,13,16,57,21.40
2020,08,13,16,58,21.40
2020,08,13,16,59,21.40
2020,08,13,17,00,21.40
2020,08,13,17,01,21.40
2020,08,13,17,02,21.40
2020,08,13,17,03,21.40
2020,08,13,17,04,21.40
2020,08,13,17,05,21.40
2020,08,13,17,06,21.50
2020,08,13,17,07,21.50
2020,08,13,17,08,21.50
2020,08,13,17,09,21.50
2020,08,13,17,10,21.50
2020,08,13,17,11,21.40
2020,08,13,17,12,21.40
2020,08,13,17,13,21.30
2020,08,13,17,14,21.30
2020,08,13,17,15,21.20
2020,08,13,17,16,21.20
2020,08,13,17,17,21.10
2020,08,13,17,18,21.10
2020,08,13,17,19,21.00